EDT,Max TemperatureF,Mean TemperatureF,Min TemperatureF,Max Dew PointF,MeanDew PointF,Min DewpointF,Max Humidity, Mean Humidity, Min Humidity, Max Sea Level PressureIn, Mean Sea Level PressureIn, Min Sea Level PressureIn, Max VisibilityMiles, Mean VisibilityMiles, Min VisibilityMiles, Max Wind SpeedMPH, Mean Wind SpeedMPH, Max Gust SpeedMPH,PrecipitationIn, CloudCover, Events, WindDirDegrees
2012-9-1,78,74,71,72,70,68,94,87,78,30.11,30.08,30.03,10,8,3,9,2,,0.07,3,Rain,82
2012-9-2,80,74,68,70,68,66,100,83,65,30.04,29.97,29.91,10,7,0,14,8,20,0.02,6,Fog-Rain,83
2012-9-3,87,78,68,72,67,64,94,76,48,29.95,29.92,29.88,10,9,2,10,7,22,0.25,2,Rain,78
2012-9-4,86,77,68,72,67,64,100,80,48,29.93,29.89,29.86,10,6,0,9,1,17,0.00,3,Fog,322
2012-9-5,78,71,64,70,66,63,100,84,65,29.91,29.87,29.83,10,7,0,12,2,25,0.28,2,Fog-Rain,181
2012-9-6,86,74,62,68,61,54,94,70,39,29.95,29.91,29.86,10,8,1,12,3,10,0.00,2,,283
2012-9-7,80,68,57,68,60,55,94,78,51,29.95,29.87,29.72,10,9,2,9,1,,0.26,2,Rain,205
2012-9-8,69,61,53,63,51,45,94,71,43,29.89,29.81,29.71,10,10,7,17,9,24,0.24,4,Rain,304
2012-9-9,71,62,53,54,51,46,94,74,43,30.12,29.98,29.88,10,10,3,10,2,,0.11,4,Rain,331
2012-9-10,73,62,50,50,44,37,94,60,27,30.25,30.19,30.12,10,10,10,6,1,,0.00,0,,47
2012-9-11,78,64,50,52,49,45,88,62,32,30.25,30.20,30.16,10,10,10,10,2,18,0.00,0,,206
2012-9-12,82,66,50,57,52,46,88,64,35,30.26,30.22,30.18,10,10,10,10,2,17,0.00,0,,209
2012-9-13,82,72,62,59,55,45,82,58,26,30.28,30.24,30.20,10,10,10,13,3,22,0.00,6,,232
2012-9-14,71,62,53,59,50,41,94,71,35,30.33,30.28,30.24,10,10,5,12,6,17,0.24,4,Rain,337
2012-9-15,71,58,46,50,45,41,93,64,33,30.35,30.28,30.19,10,10,10,5,0,,0.00,0,,140
2012-9-16,77,62,46,50,45,39,93,61,27,30.19,30.11,30.04,10,10,10,8,1,,0.00,0,,211
2012-9-17,75,60,46,63,52,45,94,73,41,30.05,29.91,29.75,10,10,7,8,1,,0.03,2,,203
2012-9-18,64,54,44,63,47,32,94,68,38,30.03,29.80,29.66,10,10,5,20,7,28,0.01,5,Rain,303
2012-9-19,68,52,37,41,35,32,93,55,26,30.13,30.06,30.00,10,10,10,12,3,18,0.00,0,,208
2012-9-20,73,62,50,50,42,36,82,53,33,30.00,29.93,29.88,10,10,5,12,7,22,0.08,3,Rain,230
2012-9-21,71,58,44,50,41,32,94,65,23,29.97,29.91,29.80,10,10,7,10,2,16,0.07,3,Rain,214
2012-9-22,53,48,44,50,45,41,100,88,67,30.14,29.92,29.78,10,6,0,16,4,23,0.13,5,Fog-Rain,247
2012-9-23,59,49,37,43,37,32,93,70,39,30.25,30.19,30.13,10,10,7,17,4,23,0.00,2,,289
2012-9-24,64,48,33,37,33,28,93,59,26,30.25,30.14,29.99,10,10,7,14,3,22,0.00,0,,220
2012-9-25,66,56,46,59,47,34,88,66,44,30.00,29.94,29.90,10,10,7,10,5,16,0.00,5,,211
2012-9-26,73,66,57,61,59,52,94,81,61,30.12,29.99,29.90,10,7,4,9,3,,0.00,6,,233
2012-9-27,71,61,50,52,48,45,88,68,49,30.19,30.16,30.13,10,9,1,13,6,16,0.00,3,Rain,76
2012-9-28,68,57,46,50,46,41,93,74,40,30.17,30.13,30.08,10,9,4,10,2,,0.00,4,,81
2012-9-29,71,56,42,46,42,34,100,65,25,30.12,30.04,29.95,10,8,1,9,2,17,0.00,0,,298
2012-9-30,66,54,42,48,41,36,93,67,32,29.97,29.94,29.91,10,10,5,15,3,22,0.00,1,,39